De Kooy Airfield

Airport
ICAO code: 
EHKD
IATA Code: 
DHR
Summary
ICAO Region: 
EUR
Territory: 
Location: 
Den Helder, Noord-Holland
Serving: 
De Kooy
Elevation: 
3 ft
Coordinates: 
Aerial View: 
52° 55' 24.071" N, 4° 46' 50.25" E
Metar
Observation
EHKD 260825Z AUTO 26015KT 230V290 9999 FEW055 BKN060 15/12 Q1018 BLU NOSIG
Station
De Kooy
Date/Time
2022-05-26 08:25:00
Wind direction
260°
Wind speed
15 kts
Lowest cloud amount
few clouds
Temperature
15°C
Dew point
12°C
Humidity
82%
QNH
1018 hPa
Weather condition
n/a

De Kooy Airfield is an airfield 2.9 nm south of Den Helder, the Netherlands, named after the nearby hamlet De Kooy. It serves as both a civilian airport under the name Den Helder Airport and a naval airport under the name Maritiem Vliegkamp De Kooy.

Climatology

Temperate Marine climate/Oceanic climate (Köppen climate classification Cfb). Moderately cool summer and comparatively warm winter with a temperature range of only 14°C. Prevailing south-westerly winds from the Atlantic Ocean.

Runways

Designator Length Width Surface Rops
4/22 1275 30 CON No/No
Airport map: 
Aerial View: 

Accidents and Serious Incidents at or in the vicinity of EHKD

SKYbrary Partners:

Safety knowledge contributed by: